SJX847 RJFT-RCTP

Flight info

Callsign SJX847
Flight time N/A
Altitude 40000
Route MIFNE HKC A1 DRAKE DRAKE1A
Aircraft A359/H-SDE2E3GHIJ3J4J5LM1ORWXY/LB1D1

Departure

Time 2026-05-04 11:46
Airport Kumamoto Airport (RJFT)

Arrival

Time N/A
Airport Taiwan Taoyuan International Airport (RCTP)
Time Latitude Longitude Altitude Speed Heading
2026-05-04 11:16 32.83555 130.85864 650 ft 0 kts 154°
2026-05-04 11:37 32.83569 130.85855 652 ft 3 kts 154°
2026-05-04 11:37 32.83587 130.85845 652 ft 3 kts 154°
2026-05-04 11:38 32.83605 130.85835 655 ft 3 kts 154°
2026-05-04 11:38 32.83624 130.85824 651 ft 3 kts 154°
2026-05-04 11:38 32.83642 130.85814 653 ft 2 kts 154°
2026-05-04 11:38 32.83657 130.85804 657 ft 3 kts 125°
2026-05-04 11:39 32.83662 130.85787 657 ft 3 kts 69°
2026-05-04 11:39 32.83653 130.85765 656 ft 3 kts 63°
2026-05-04 11:40 32.83651 130.85760 656 ft 0 kts 64°
2026-05-04 11:41 32.83654 130.85768 656 ft 5 kts 65°
2026-05-04 11:42 32.83674 130.85819 657 ft 9 kts 65°
2026-05-04 11:42 32.83706 130.85901 653 ft 13 kts 65°
2026-05-04 11:42 32.83751 130.86008 651 ft 15 kts 64°
2026-05-04 11:42 32.83802 130.86128 652 ft 16 kts 61°
2026-05-04 11:43 32.83854 130.86258 648 ft 19 kts 67°
2026-05-04 11:43 32.83909 130.86411 649 ft 21 kts 67°
2026-05-04 11:43 32.83971 130.86567 652 ft 21 kts 65°
2026-05-04 11:43 32.84033 130.86725 654 ft 22 kts 65°
2026-05-04 11:44 32.84104 130.86884 656 ft 22 kts 60°
2026-05-04 11:44 32.84170 130.86999 657 ft 11 kts 21°
2026-05-04 11:44 32.84241 130.86986 655 ft 11 kts 337°
2026-05-04 11:44 32.84294 130.86928 658 ft 10 kts 276°
2026-05-04 11:45 32.84276 130.86858 659 ft 0 kts 244°
2026-05-04 11:45 32.84265 130.86829 659 ft 20 kts 244°
2026-05-04 11:45 32.84091 130.86398 657 ft 94 kts 245°
2026-05-04 11:45 32.83715 130.85458 662 ft 155 kts 245°
2026-05-04 11:46 32.83221 130.84255 1269 ft 157 kts 246°
2026-05-04 11:46 32.82762 130.83099 2101 ft 157 kts 249°
2026-05-04 11:46 32.82262 130.81836 2505 ft 180 kts 248°
2026-05-04 11:46 32.81692 130.80401 2848 ft 205 kts 248°
2026-05-04 11:47 32.81018 130.78758 3204 ft 234 kts 244°
2026-05-04 11:47 32.79975 130.77211 3802 ft 253 kts 223°
2026-05-04 11:47 32.78372 130.76247 4552 ft 266 kts 195°
2026-05-04 11:47 32.76502 130.76051 5392 ft 273 kts 182°
2026-05-04 11:48 32.74587 130.76068 6306 ft 277 kts 181°
2026-05-04 11:48 32.72635 130.76091 7170 ft 281 kts 182°
2026-05-04 11:48 32.70683 130.76099 8048 ft 286 kts 183°
2026-05-04 11:48 32.68666 130.76096 8966 ft 291 kts 184°
2026-05-04 11:49 32.66621 130.76087 9903 ft 297 kts 184°
2026-05-04 11:49 32.64518 130.76059 10554 ft 310 kts 186°
2026-05-04 11:49 32.62303 130.75843 10988 ft 329 kts 191°
2026-05-04 11:49 32.59968 130.75459 11434 ft 347 kts 193°
2026-05-04 11:50 32.57531 130.75056 11950 ft 360 kts 188°
2026-05-04 11:50 32.55021 130.74707 12604 ft 367 kts 188°
2026-05-04 11:50 32.52490 130.74343 13332 ft 372 kts 189°
2026-05-04 11:50 32.49910 130.73948 14084 ft 375 kts 187°
2026-05-04 11:51 32.47285 130.73642 14672 ft 380 kts 186°
2026-05-04 11:51 32.44645 130.73363 15338 ft 382 kts 186°
2026-05-04 11:51 32.41992 130.73032 15980 ft 384 kts 187°
2026-05-04 11:51 32.39328 130.72627 16652 ft 387 kts 188°
2026-05-04 11:52 32.36646 130.72165 17309 ft 389 kts 189°
2026-05-04 11:52 32.33994 130.71668 17937 ft 392 kts 189°
2026-05-04 11:52 32.31286 130.71135 18576 ft 395 kts 190°
2026-05-04 11:52 32.28568 130.70594 19228 ft 395 kts 191°
2026-05-04 11:53 32.25889 130.70065 19887 ft 394 kts 192°
2026-05-04 11:53 32.23180 130.69539 20557 ft 392 kts 192°
2026-05-04 11:53 32.20486 130.69012 21274 ft 390 kts 193°
2026-05-04 11:53 32.17797 130.68489 21967 ft 390 kts 193°
2026-05-04 11:55 31.99015 130.64849 25709 ft 397 kts 195°
2026-05-04 11:55 31.96283 130.64317 26163 ft 399 kts 195°
2026-05-04 11:56 31.93544 130.63785 26622 ft 400 kts 195°
2026-05-04 11:56 31.90793 130.63252 27032 ft 402 kts 195°
2026-05-04 11:56 31.88018 130.62715 27403 ft 405 kts 194°
2026-05-04 11:56 31.85227 130.62177 27782 ft 408 kts 194°
2026-05-04 11:57 31.82413 130.61633 28222 ft 410 kts 194°
2026-05-04 11:57 31.79585 130.61089 28650 ft 411 kts 194°
2026-05-04 11:57 31.76801 130.60528 28989 ft 411 kts 196°
2026-05-04 11:57 31.74054 130.59653 29338 ft 406 kts 202°
2026-05-04 11:58 31.71451 130.58403 29738 ft 402 kts 208°
2026-05-04 11:58 31.69030 130.56776 30012 ft 399 kts 215°
2026-05-04 11:58 31.66844 130.54773 30276 ft 398 kts 221°
2026-05-04 11:58 31.64885 130.52468 30628 ft 396 kts 226°
2026-05-04 11:59 31.63122 130.50037 30973 ft 395 kts 229°
2026-05-04 11:59 31.61426 130.47488 31283 ft 395 kts 230°
2026-05-04 11:59 31.59771 130.44907 31559 ft 397 kts 230°
2026-05-04 11:59 31.58115 130.42309 31823 ft 398 kts 231°
2026-05-04 12:00 31.56443 130.39705 32091 ft 399 kts 230°
2026-05-04 12:00 31.54758 130.37111 32352 ft 400 kts 230°
2026-05-04 12:00 31.53064 130.34529 32601 ft 401 kts 230°
2026-05-04 12:00 31.51372 130.31966 32846 ft 401 kts 230°
2026-05-04 12:01 31.49650 130.29370 33044 ft 402 kts 230°
2026-05-04 12:01 31.47934 130.26786 33353 ft 401 kts 230°
2026-05-04 12:02 31.37734 130.11496 34770 ft 394 kts 230°
2026-05-04 12:03 31.36054 130.08966 34946 ft 393 kts 230°
2026-05-04 12:03 31.34395 130.06459 35091 ft 393 kts 231°
2026-05-04 12:03 31.32721 130.03924 35255 ft 393 kts 231°
2026-05-04 12:03 31.31047 130.01390 35382 ft 394 kts 230°
2026-05-04 12:04 31.27688 129.96304 35624 ft 394 kts 231°
2026-05-04 12:04 31.26013 129.93785 35789 ft 393 kts 230°
2026-05-04 12:04 31.24331 129.91269 35921 ft 393 kts 230°
2026-05-04 12:05 31.22645 129.88750 36044 ft 393 kts 231°
2026-05-04 12:05 31.20981 129.86261 36167 ft 393 kts 231°
2026-05-04 12:05 31.19298 129.83743 36306 ft 392 kts 231°
2026-05-04 12:05 31.17618 129.81228 36428 ft 392 kts 231°
2026-05-04 12:06 31.15938 129.78714 36600 ft 392 kts 231°
2026-05-04 12:06 31.14831 129.77057 36660 ft 391 kts 231°
2026-05-04 12:06 31.13148 129.74538 36776 ft 391 kts 231°
2026-05-04 12:06 31.10928 129.71220 36943 ft 391 kts 231°
2026-05-04 12:07 31.09252 129.68716 37072 ft 391 kts 231°
2026-05-04 12:07 31.08143 129.67060 37158 ft 391 kts 231°
2026-05-04 12:07 31.06467 129.64559 37287 ft 390 kts 231°
2026-05-04 12:07 31.04796 129.62067 37402 ft 390 kts 231°
2026-05-04 12:08 31.03126 129.59578 37534 ft 390 kts 231°
2026-05-04 12:08 31.01452 129.57085 37626 ft 389 kts 231°
2026-05-04 12:08 30.98101 129.52100 37793 ft 390 kts 231°
2026-05-04 12:09 30.96424 129.49608 37918 ft 390 kts 231°
2026-05-04 12:09 30.94746 129.47117 38036 ft 390 kts 231°
2026-05-04 12:09 30.93095 129.44667 38159 ft 389 kts 231°
2026-05-04 12:09 30.91417 129.42179 38264 ft 389 kts 231°
2026-05-04 12:10 30.89740 129.39693 38368 ft 389 kts 231°
2026-05-04 12:10 30.88063 129.37209 38466 ft 388 kts 231°
2026-05-04 12:10 30.84741 129.32293 38617 ft 389 kts 231°
2026-05-04 12:11 30.83070 129.29823 38731 ft 388 kts 231°
2026-05-04 12:11 30.81399 129.27355 38826 ft 388 kts 231°
2026-05-04 12:11 30.78046 129.22408 38950 ft 388 kts 231°
2026-05-04 12:12 30.74730 129.17447 39069 ft 388 kts 232°
2026-05-04 12:12 30.71452 129.12441 39044 ft 391 kts 232°
2026-05-04 12:13 30.69808 129.09924 39145 ft 390 kts 232°
2026-05-04 12:14 30.58327 128.92459 39485 ft 390 kts 232°
2026-05-04 12:15 30.55012 128.87437 39546 ft 391 kts 232°
2026-05-04 12:15 30.53352 128.84926 39682 ft 390 kts 232°
2026-05-04 12:15 30.51698 128.82426 39733 ft 390 kts 232°
2026-05-04 12:16 30.48404 128.77447 39785 ft 390 kts 232°
2026-05-04 12:16 30.45096 128.72453 39886 ft 391 kts 232°
2026-05-04 12:17 30.41763 128.67429 39811 ft 394 kts 232°
2026-05-04 12:17 30.38449 128.62443 39998 ft 392 kts 232°
2026-05-04 12:18 30.35122 128.57441 40088 ft 392 kts 230°
2026-05-04 12:18 30.31267 128.52939 40125 ft 393 kts 221°
2026-05-04 12:19 30.29328 128.50808 40171 ft 387 kts 223°
2026-05-04 12:19 30.28971 128.50397 40204 ft 384 kts 236°
2026-05-04 12:20 30.27414 128.47919 40047 ft 385 kts 240°
2026-05-04 12:20 30.26063 128.45264 39717 ft 388 kts 245°
2026-05-04 12:20 30.23598 128.39707 39888 ft 389 kts 244°
2026-05-04 12:21 30.22198 128.37016 40093 ft 390 kts 241°
2026-05-04 12:21 30.20676 128.34409 40150 ft 391 kts 239°
2026-05-04 12:21 30.17399 128.29362 40168 ft 392 kts 237°
2026-05-04 12:22 30.14037 128.24428 40171 ft 392 kts 237°
2026-05-04 12:22 30.10659 128.19467 40171 ft 392 kts 237°
2026-05-04 12:23 30.07329 128.14537 40164 ft 391 kts 237°
2026-05-04 12:23 30.03984 128.09570 40163 ft 391 kts 237°
2026-05-04 12:24 30.00646 128.04617 40114 ft 391 kts 237°
2026-05-04 12:24 29.97307 127.99667 40165 ft 393 kts 237°
2026-05-04 12:25 29.93941 127.94688 40192 ft 394 kts 237°
2026-05-04 12:25 29.90570 127.89710 40162 ft 393 kts 237°
2026-05-04 12:26 29.87226 127.84777 40179 ft 392 kts 237°
2026-05-04 12:26 29.83747 127.79906 40163 ft 395 kts 235°
2026-05-04 12:27 29.80151 127.75104 40171 ft 396 kts 234°
2026-05-04 12:27 29.76536 127.70300 40185 ft 396 kts 234°
2026-05-04 12:28 29.72963 127.65530 40172 ft 395 kts 235°
2026-05-04 12:28 29.69381 127.60736 40131 ft 395 kts 234°
2026-05-04 12:29 29.65789 127.55926 40173 ft 397 kts 234°
2026-05-04 12:29 29.62180 127.51105 40175 ft 397 kts 234°
2026-05-04 12:30 29.58576 127.46279 40187 ft 397 kts 235°
2026-05-04 12:30 29.55138 127.41393 40173 ft 395 kts 237°
2026-05-04 12:31 29.51737 127.36420 40172 ft 395 kts 237°
2026-05-04 12:31 29.48328 127.31447 40178 ft 396 kts 237°
2026-05-04 12:32 29.43212 127.24044 40180 ft 396 kts 236°
2026-05-04 12:33 29.39773 127.19089 40179 ft 395 kts 236°
2026-05-04 12:33 29.36361 127.14175 40173 ft 396 kts 236°
2026-05-04 12:34 29.32916 127.09216 40179 ft 397 kts 236°